Location: Brede
(50.9167°N, 0.6000°E)
Time: 17:40:41
(UTC+00:00)

Explorer 7 - Visible Passes

Search period start: 04 December 2020 00:00
Search period end: 14 December 2020 00:00
Orbit: 484 x 678 km, 50.3° (Epoch: 03 December)

Date Brightness Start Highest point End Pass type
(mag) Time Alt. Az. Time Alt. Az. Time Alt. Az.
04 Dec 7.9 05:04:42 35° S 05:04:42 35° S 05:07:42 10° SE visible
04 Dec 9.1 06:42:39 10° WSW 06:43:27 10° SW 06:44:14 10° SW visible
05 Dec 8.3 05:09:21 26° S 05:09:21 26° S 05:11:54 10° SSE visible
06 Dec 8.8 05:14:05 18° SSW 05:14:05 18° SSW 05:15:52 10° SSE visible
07 Dec 9.2 05:18:52 12° SSW 05:18:52 12° SSW 05:19:26 10° S visible
